Location: Goettingen
(51.5300°N, 9.9433°E)
Time: 20:48:06
(UTC+02:00)

ISS - Pass Details

Date: 12 July 2019
Orbit: 409 x 418 km, 51.6° (Epoch: 20 July)

Event Time Altitude Azimuth Distance (km) Brightness Sun altitude
Exits shadow 03:12:23 - 261° (W) 1,531 -1.2 -12.8°
Reaches altitude 10° 03:12:30 10° 261° (W) 1,482 -1.3 -12.8°
Maximum altitude 03:15:50 88° 179° (S) 417 -3.9 -12.6°
Drops below altitude 10° 03:19:09 10° 84° (E) 1,479 -0.5 -12.4°
Sets 03:21:14 0° 84° (E) 2,341 0.5 -12.2°
